Regional Weather Roundup
Issued by NWS Cleveland, OH

Home | Current Version | Previous Version | Text Only | Print | Product List | Glossary On
Versions: 1 2 3 4 5 6 7 8 9 10 11 12 13 14 15 16 17 18 19 20 21 22 23 24 25 26 27 28 29 30 31 32 33 34 35 36 37 38 39 40 41 42 43 44 45 46 47 48 49 50
000
ASUS41 KCLE 240110
RWRCLE
OHIO REGIONAL WEATHER ROUNDUP
NATIONAL WEATHER SERVICE CLEVELAND, OH
800 PM EST SUN NOV 23 2014

NOTE: "FAIR" INDICATES FEW OR NO CLOUDS BELOW 12,000 FEET WITH NO
SIGNIFICANT WEATHER AND/OR OBSTRUCTIONS TO VISIBILITY.

OHZ001>008-015>018-024>027-034-035-043-044-240200-
   NORTHWEST OHIO

CITY           SKY/WX    TMP DP  RH WIND       PRES   REMARKS
DEFIANCE       LGT RAIN  52  47  83 SE10      29.44F
FINDLAY        LGT RAIN  54  47  77 SE20G26   29.46F
TOLEDO EXPRESS RAIN      51  47  86 SE9       29.47F FOG
TOLEDO EXEC    RAIN      52  47  83 SE13      29.49F
LIMA           LGT RAIN  53  49  86 SE20      29.44F
$$

OHZ009>014-019>023-028>033-038-089-240200-
   NORTHEAST OHIO

CITY           SKY/WX    TMP DP  RH WIND       PRES   REMARKS
CLE-HOPKINS    LGT RAIN  58  45  62 SE16G23   29.59F
CLE-LAKEFRONT  CLOUDY    60  45  57 SE16G28   29.55F
CUY CO. ARPT   CLOUDY    59  46  63 SE12G21   29.58F
LORAIN-ELYRIA  LGT RAIN  56  47  71 S17       29.56F
ASHTABULA      MOCLDY    54  41  61 SE14      29.65F
AKRON-CANTON   LGT RAIN  57  45  64 S18G26    29.62F
WOOSTER        LGT RAIN N/A N/A N/A S13       29.61F
MANSFIELD      LGT RAIN  52  48  86 SE20G26   29.55F
YOUNGSTOWN     CLOUDY    56  42  59 SE15      29.65F
$$

OHZ042-051>053-060>062-070>072-077>081-240200-
  SOUTHWEST OHIO

CITY           SKY/WX    TMP DP  RH WIND       PRES   REMARKS
CINC-COVINGTON NOT AVBL
CINC-LUNKEN    HVY RAIN  56  56 100 SE15G28   29.44F FOG
HAMILTON       HVY RAIN  56  54  93 SE13G31   29.42F FOG
DAYTON         RAIN      55  53  93 SE25G32   29.44F FOG
WRIGHT-PAT AFB LGT RAIN  54  52  92 SE22G32   29.45F
DAYTON GENERAL RAIN      55  53  93 SE20G32   29.44F FOG
WILMINGTON     RAIN      54  51  90 SE21G31   29.48F FOG
$$

OHZ036-037-039>041-045>050-054>059-063>069-073>076-082>088-240200-
  CENTRAL AND SOUTHEAST OHIO

CITY           SKY/WX    TMP DP  RH WIND       PRES   REMARKS
COLUMBUS       CLOUDY    53  48  83 SE17      29.54F
OSU AIRPORT    CLOUDY    53  49  86 SE17G25   29.51F
BOLTON FIELD   RAIN      53  49  88 SE14G24   29.52F
RICKENBACK AFB DRIZZLE   53  48  84 SE16G25   29.52F
NEWARK         LGT RAIN  53  47  79 SE8G18    29.57F
MARION         LGT RAIN  52  48  86 SE20G30   29.52F FOG
LANCASTER      CLOUDY    55  49  80 SE21G28   29.55F
ZANESVILLE     LGT RAIN  54  47  77 SE16G25   29.61F
NEW PHILLY     LGT RAIN  57  48  72 SE7       29.64F
$$


USA.gov is the U.S. government's official web portal to all federal, state and local government web resources and services.